When you browse on this site, cookies collect data to enhance your experience and personalize the content and advertising you see.
Visit our Privacy Policy to learn more. By continuing to use the site, you agree to this use of cookies and data.
  • In Portugal
  • List of Countries
  • For 7 days
  • Water Temperature
  • Satellite Maps
  • Weather Map
  • Weather Widgets
  • user-avatar
    Login

    Hourly Weather Budziska

    Today, 23 February, Saturday

    Time Temperature Precipitation Wind Pressure Humidity
    00:00 -3°C° 0 mm 0 mps 772 mmHg 56%
    01:00 -4°C° 0 mm 0 mps 772 mmHg 59%
    02:00 -4°C° 0 mm 0 mps 772 mmHg 59%
    03:00 -3°C° 0 mm 1 mps 771 mmHg 58%
    04:00 -3°C° 0 mm 1 mps 771 mmHg 58%
    05:00 -3°C° 0 mm 1 mps 771 mmHg 56%
    06:00 -3°C° 0 mm 1 mps 771 mmHg 55%
    07:00 -3°C° 0 mm 1 mps 771 mmHg 54%
    08:00 -4°C° 0 mm 2 mps 771 mmHg 49%
    09:00 -3°C° 0 mm 2 mps 771 mmHg 44%
    10:00 -3°C° 0 mm 2 mps 771 mmHg 38%
    11:00 -2°C° 0 mm 2 mps 771 mmHg 37%
    12:00 -2°C° 0 mm 3 mps 771 mmHg 35%
    13:00 -1°C° 0 mm 3 mps 770 mmHg 34%
    14:00 -1°C° 0 mm 3 mps 770 mmHg 34%
    15:00 -1°C° 0 mm 3 mps 770 mmHg 35%
    16:00 0°C° 0 mm 3 mps 769 mmHg 35%
    17:00 -1°C° 0 mm 3 mps 769 mmHg 37%
    18:00 -2°C° 0 mm 3 mps 769 mmHg 39%
    19:00 -2°C° 0 mm 3 mps 768 mmHg 41%
    20:00 -2°C° 0 mm 3 mps 768 mmHg 42%
    21:00 -2°C° 0 mm 3 mps 768 mmHg 42%
    22:00 -2°C° 0 mm 3 mps 768 mmHg 42%
    23:00 -2°C° 0 mm 3 mps 767 mmHg 43%

    Tomorrow, 24 February, Sunday

    Time Temperature Precipitation Wind Pressure Humidity
    00:00 -1°C° 0 mm 3 mps 767 mmHg 44%
    01:00 -1°C° 0 mm 3 mps 767 mmHg 45%
    02:00 -1°C° 0 mm 3 mps 767 mmHg 46%
    03:00 -1°C° 0 mm 3 mps 766 mmHg 48%
    04:00 -1°C° 0 mm 3 mps 766 mmHg 49%
    05:00 -1°C° 0 mm 3 mps 766 mmHg 49%
    06:00 -1°C° 0 mm 3 mps 766 mmHg 50%
    07:00 -1°C° 0 mm 3 mps 765 mmHg 50%
    08:00 0°C° 0 mm 3 mps 765 mmHg 49%
    09:00 0°C° 0 mm 4 mps 765 mmHg 48%
    10:00 +1°C° 0 mm 4 mps 765 mmHg 48%
    11:00 +4°C° 0 mm 4 mps 765 mmHg 48%
    12:00 +5°C° 0 mm 4 mps 765 mmHg 49%
    13:00 +6°C° 0 mm 4 mps 765 mmHg 49%
    14:00 +5°C° 0 mm 4 mps 764 mmHg 54%
    15:00 +5°C° 0 mm 4 mps 764 mmHg 58%
    16:00 +4°C° 0 mm 4 mps 764 mmHg 63%
    17:00 +3°C° 0 mm 4 mps 764 mmHg 67%
    18:00 +3°C° 0 mm 4 mps 764 mmHg 72%
    19:00 +1°C° 0 mm 5 mps 764 mmHg 77%
    20:00 +1°C° 0 mm 4 mps 764 mmHg 82%
    21:00 0°C° 0 mm 4 mps 764 mmHg 87%
    22:00 0°C° 0 mm 4 mps 764 mmHg 92%
    23:00 +1°C° 0 mm 3 mps 764 mmHg 93%

    Day after tomorrow, 25 February, Monday

    Time Temperature Precipitation Wind Pressure Humidity
    00:00 +1°C° 0 mm 3 mps 764 mmHg 95%
    01:00 +1°C° 0 mm 3 mps 764 mmHg 96%
    02:00 +1°C° 0 mm 3 mps 764 mmHg 96%
    03:00 +1°C° 0 mm 3 mps 764 mmHg 96%
    04:00 +1°C° 0 mm 3 mps 764 mmHg 96%
    05:00 +1°C° 0 mm 3 mps 764 mmHg 96%
    06:00 +1°C° 0 mm 3 mps 764 mmHg 96%
    07:00 +1°C° 0 mm 3 mps 764 mmHg 96%
    08:00 +2°C° 0 mm 3 mps 764 mmHg 93%
    09:00 +2°C° 0 mm 3 mps 764 mmHg 91%
    10:00 +3°C° 0 mm 4 mps 764 mmHg 88%
    11:00 +4°C° 0 mm 4 mps 764 mmHg 79%
    12:00 +6°C° 0 mm 4 mps 763 mmHg 71%
    13:00 +7°C° 0 mm 4 mps 763 mmHg 62%
    14:00 +7°C° 0 mm 4 mps 763 mmHg 63%
    15:00 +7°C° 0 mm 4 mps 763 mmHg 65%
    16:00 +6°C° 0 mm 4 mps 762 mmHg 66%
    17:00 +5°C° 0 mm 4 mps 762 mmHg 75%
    18:00 +5°C° 0 mm 4 mps 762 mmHg 83%
    19:00 +4°C° 0 mm 4 mps 762 mmHg 92%
    20:00 +4°C° 0 mm 3 mps 761 mmHg 93%
    21:00 +4°C° 0 mm 3 mps 761 mmHg 93%
    22:00 +4°C° 0 mm 3 mps 761 mmHg 93%
    23:00 +3°C° 0 mm 3 mps 760 mmHg 93%

    26 February, Tuesday

    Time Temperature Precipitation Wind Pressure Humidity
    00:00 +3°C° 0 mm 3 mps 760 mmHg 93%
    01:00 +3°C° 0 mm 3 mps 760 mmHg 93%
    02:00 +3°C° 0 mm 3 mps 760 mmHg 90%
    03:00 +3°C° 0 mm 3 mps 759 mmHg 88%
    04:00 +3°C° 0 mm 4 mps 759 mmHg 85%
    05:00 +3°C° 0 mm 4 mps 759 mmHg 85%
    06:00 +1°C° 0 mm 4 mps 758 mmHg 85%
    07:00 +1°C° 0 mm 4 mps 758 mmHg 86%
    08:00 +3°C° 0 mm 4 mps 758 mmHg 83%
    09:00 +4°C° 0 mm 4 mps 759 mmHg 80%
    10:00 +5°C° 0 mm 5 mps 759 mmHg 77%
    11:00 +6°C° 0 mm 4 mps 759 mmHg 74%
    12:00 +7°C° 0 mm 4 mps 759 mmHg 70%
    13:00 +8°C° 0 mm 4 mps 759 mmHg 67%
    14:00 +8°C° 0 mm 4 mps 759 mmHg 67%
    15:00 +9°C° 0 mm 3 mps 759 mmHg 68%
    16:00 +8°C° 0 mm 3 mps 759 mmHg 68%
    17:00 +7°C° 0 mm 3 mps 759 mmHg 73%
    18:00 +5°C° 0 mm 3 mps 759 mmHg 79%
    19:00 +4°C° 0 mm 3 mps 759 mmHg 84%
    20:00 +4°C° 0 mm 2 mps 759 mmHg 86%
    21:00 +4°C° 0 mm 2 mps 759 mmHg 88%
    22:00 +3°C° 0 mm 2 mps 759 mmHg 90%
    23:00 +3°C° 0 mm 2 mps 759 mmHg 90%

    27 February, Wednesday

    Time Temperature Precipitation Wind Pressure Humidity
    00:00 +3°C° 0 mm 2 mps 758 mmHg 91%
    01:00 +3°C° 0 mm 2 mps 758 mmHg 92%
    02:00 +3°C° 0 mm 2 mps 758 mmHg 92%
    03:00 +3°C° 0 mm 2 mps 757 mmHg 91%
    04:00 +2°C° 0 mm 3 mps 757 mmHg 91%
    05:00 +2°C° 0 mm 3 mps 756 mmHg 91%
    06:00 +2°C° 0 mm 3 mps 756 mmHg 91%
    07:00 +2°C° 0 mm 3 mps 755 mmHg 91%
    08:00 +3°C° 0 mm 4 mps 755 mmHg 86%
    09:00 +4°C° 0 mm 4 mps 755 mmHg 81%
    10:00 +6°C° 0 mm 4 mps 755 mmHg 75%
    11:00 +7°C° 0 mm 4 mps 755 mmHg 73%
    12:00 +8°C° 0 mm 4 mps 754 mmHg 70%
    13:00 +10°C° 0 mm 4 mps 754 mmHg 67%
    14:00 +10°C° 0 mm 4 mps 753 mmHg 66%
    15:00 +8°C° 0 mm 4 mps 753 mmHg 65%
    16:00 +8°C° 0 mm 4 mps 752 mmHg 64%
    17:00 +7°C° 0 mm 4 mps 752 mmHg 66%
    18:00 +6°C° 0 mm 4 mps 751 mmHg 68%
    19:00 +5°C° 0 mm 4 mps 751 mmHg 70%
    20:00 +4°C° 0 mm 4 mps 750 mmHg 68%
    21:00 +4°C° 0 mm 4 mps 750 mmHg 66%
    22:00 +3°C° 0 mm 4 mps 750 mmHg 64%
    23:00 +2°C° 0 mm 5 mps 749 mmHg 64%

    28 February, Thursday

    Time Temperature Precipitation Wind Pressure Humidity
    00:00 +2°C° 0 mm 5 mps 749 mmHg 63%
    01:00 +2°C° 0 mm 5 mps 748 mmHg 63%
    02:00 +2°C° 0 mm 5 mps 748 mmHg 64%
    03:00 +1°C° 0 mm 4 mps 748 mmHg 66%
    04:00 +1°C° 0 mm 4 mps 747 mmHg 68%
    05:00 +1°C° 0 mm 4 mps 747 mmHg 71%
    06:00 +1°C° 0 mm 4 mps 747 mmHg 74%
    07:00 +1°C° 0 mm 3 mps 747 mmHg 77%
    08:00 +1°C° 0 mm 4 mps 747 mmHg 74%
    09:00 +3°C° 0 mm 4 mps 747 mmHg 70%
    10:00 +5°C° 0 mm 4 mps 747 mmHg 67%
    11:00 +5°C° 0 mm 4 mps 747 mmHg 61%
    12:00 +6°C° 0 mm 4 mps 748 mmHg 55%
    13:00 +7°C° 0 mm 4 mps 748 mmHg 50%
    14:00 +7°C° 0 mm 4 mps 748 mmHg 50%
    15:00 +7°C° 0 mm 4 mps 748 mmHg 50%
    16:00 +6°C° 0 mm 4 mps 748 mmHg 50%
    17:00 +5°C° 0 mm 3 mps 748 mmHg 56%
    18:00 +4°C° 0 mm 3 mps 748 mmHg 62%
    19:00 +4°C° 0 mm 2 mps 749 mmHg 68%
    20:00 +3°C° 0 mm 2 mps 749 mmHg 71%
    21:00 +3°C° 0 mm 2 mps 749 mmHg 75%
    22:00 +2°C° 0 mm 2 mps 749 mmHg 78%
    23:00 +2°C° 0 mm 2 mps 749 mmHg 80%
    Show more